OBJECT B, 63429

Orbit data source: Space-Track

You're viewing an Uncataloged Satellite

Recently launched and/or uncataloged satellites may have evolving metadata. Metadata may include but not limited to: Owner, Maufacturer, Bus, Motor, and Mission.

OBJECT B, 63429 is a satellite owned by Zhongguo Xingwang (CN) in LEO that was launched on Tue, 01 Apr 2025 UTC via a CHANG ZHENG 2D launch vehicle from the Jiuquan Satellite Launch Center, China (JSC). Unknown objects in Earth's orbit typically refer to objects detected orbiting the Earth but have not yet been identified or cataloged. These objects could be anything from previously untracked satellites, spent rocket stages, debris from satellite collisions, or even natural meteoroids temporarily captured by Earth's gravity.

Loading next visibility...
Identifier
63429, 2025-067B
Orbit
LEO
Last TLE update
8 hours ago
Origin
Manufacturer
Yinhe
Mission
Operational Civil Communications
Bus & Motor
Unknown
Mass
~300 kg wet, ~300 kg dry
Launch date (UTC)
2025-04-01 (3 months ago)
Launch vehicle
CHANG ZHENG 2D
Launch site
Jiuquan Satellite Launch Center, China (JSC)
Object type
Unknown
Shape & HBR
Box + 2 Pan, 2.5 m
Radar Cross Section
2.320 m², Large (>1 m²)

Expand to show TLE details & history

TLE from 8 hours ago
0 OBJECT B
1 63429U 25067B   25190.17721718  .00006109  00000-0  17378-3 0  9990
2 63429  54.9942 124.0214 0010508 166.7547 193.3758 15.37515664 15255
Epoch: 2025-07-09T04:15Z
TLE epoch observation values (Epoch: 2025-07-09T04:15:11.564Z)
Latitude
-0.00005°
Longitude
132.86159°
Altitude
461.541 km
Speed
7.633 km/s
True Right ascension
08h 16m 05s
True Declination
0° 00' 00"
Sunlit
Object was in daylight at epoch
Visualization orbit readout
Latitude
-13.55518°
Longitude
121.74725°
Altitude
464.439 km
Speed
7.631 km/s
Apparent Right ascension
09h 26m 24s
Apparent Declination
-30° 40' 32"
Sunlit
Object is in daylight
Visualization observer readout
Local Sidereal Time
00:09:12
Azimuth
87.233° E
Elevation
-55.841°
Doppler factor
1
Orbital elements
Apogee altitude
460.6 km
Perigee altitude
446.243 km
Semi-major axis
6,831.559 km
Eccentricity
0.00105
Inclination
54.9942°
RAAN
124.0214°
Arg. of periapsis
166.7547°
True anomaly
Unknown
Mean anomaly
193.3758°
Eccentric anomaly
Unknown
Mean motion
3.84382 °/min
Orbital period
93.66 mins
BSTAR
0.00017378
Loading maneuver chart data...
Loading SW <> Apogee altitude chart data...
Loading historical data...
Loading historical data...
Loading historical data...
Loading historical data...
Loading historical data...
Loading historical data...
Loading historical data...
Other satellites on launch #67 in the year 2025 (2025-04-01 UTC)

OBJECT B Visibility forecast

Observer location: undefined°, undefined°

Span
Click to sort rows by Start time (UTC) header in descending order
Start Az.
Max El. time (UTC)
Max El. Az.
Max El.
End time (UTC)
End Az.
6 mins2025-07-09 21:33:57.505Z196.775° SSW2025-07-09 21:36:57.505Z135.029° SSE30.24°2025-07-09 21:39:57.505Z65.607° ENE
4 mins2025-07-09 23:12:57.505Z290.163° WNW2025-07-09 23:13:57.505Z314.698° NW23.043°2025-07-09 23:16:57.505Z21.58° NNE
4 mins2025-07-10 05:45:57.505Z283.448° WNW2025-07-10 05:46:57.505Z250.159° W34.566°2025-07-10 05:49:57.505Z158.129° S
|